User: anonymous   Login
Location: Unspecified
(0.0000°N, 0.0000°E)
Time: 09:38:13
(UTC+00:00)
Language:

Skynet 4A - Orbit

View from above orbital plane
View from above orbital plane
View from above satellite
View from above satellite

Ground track
Ground track

The orbit data is extracted from the following two-line orbital elements,

1 20401U 90001A   18018.97275709 -.00000007  00000-0  00000+0 0  9998
2 20401  13.3584  10.7561 0017927 252.9147 290.5083  0.98994679 98464
Epoch (UTC): 18 January 2018 23:20:46
Eccentricity: 0.0017927
inclination: 13.3584°
perigee height: 36072 km
apogee height: 36224 km
right ascension of ascending node: 10.7561°
argument of perigee: 252.9147°
revolutions per day: 0.98994679
mean anomaly at epoch: 290.5083°
orbit number at epoch: 9846

The dashed part of the orbit path shows where the satellite is in the earth's shadow,  

DLR